Regional Weather Roundup
Issued by NWS Little Rock, AR

Home | Current Version | Previous Version | Graphics & Text | Print | Product List | Glossary On
Versions: 1 2 3 4 5 6 7 8 9 10 11 12 13 14 15 16 17 18 19 20 21 22 23 24 25 26 27 28 29 30 31
000
ASUS44 KLZK 110305
RWRLZK

WEATHER ROUNDUP FOR ARKANSAS
NATIONAL WEATHER SERVICE LITTLE ROCK AR
900 PM CST SAT DEC 10 2016

NOTE: "FAIR" INDICATES FEW OR NO CLOUDS BELOW 12,000 FEET WITH NO
SIGNIFICANT WEATHER AND/OR OBSTRUCTIONS TO VISIBILITY.

ARZ001-003-010-029-110400-
NORTHWEST ARKANSAS

CITY           SKY/WX    TMP DP  RH WIND       PRES   REMARKS
FAYETTEVILLE   CLOUDY    41  20  43 S15G28    30.10F
FORT SMITH     CLOUDY    45  20  36 SE7       30.18F
HARRISON       CLOUDY    37  19  48 SE15      30.16F
BENTONVILLE    CLOUDY    43  16  33 S12G20    30.10F
ROGERS         CLOUDY    42  16  34 S14       30.10F
SILOAM SPGS    CLOUDY    43  18  36 S18G28    30.08F
HIGHFILL       CLOUDY    43  19  38 S25G31    30.08F
SPRINGDALE     CLOUDY    43  16  33 S14G23    30.11F
$$

ARZ004-005-016-110400-
NORTH CENTRAL ARKANSAS

CITY           SKY/WX    TMP DP  RH WIND       PRES   REMARKS
BATESVILLE     CLOUDY    37  21  52 E6        30.31F
FLIPPIN        CLOUDY    37  18  44 SE6       30.20F
MTN HOME       CLOUDY    35  20  54 S7        30.22F WCI  29
$$

ARZ040-041-110400-
WEST CENTRAL ARKANSAS

CITY           SKY/WX    TMP DP  RH WIND       PRES   REMARKS
MENA           CLOUDY    46  27  46 SE7       30.21F
MOUNT IDA      CLOUDY    44  21  40 SE12G17   30.22F
$$

ARZ009-017-025-026-028-110400-
NORTHEAST ARKANSAS

CITY           SKY/WX    TMP DP  RH WIND       PRES   REMARKS
CORNING        CLOUDY    36  28  75 SE6       30.32F
JONESBORO      CLOUDY    34  28  79 CALM      30.33F
NEWPORT        CLOUDY    37  28  70 S7        30.33
WALNUT RIDGE   CLOUDY    36  25  64 SE9       30.31F
BLYTHEVILLE    CLOUDY    39  22  50 S5        30.36F
$$

ARZ022-023-033-042-044-110400-
CENTRAL ARKANSAS

CITY           SKY/WX    TMP DP  RH WIND       PRES   REMARKS
LITTLE ROCK    CLOUDY    41  28  60 SE13      30.31F
N LITTLE ROCK    N/A     41  28  60 S8G16     30.33F
JACKSONVILLE   CLOUDY    41  27  56 SE8       30.30F
SEARCY         CLOUDY    39  27  62 S7        30.34S
HOT SPRINGS    CLOUDY    45  25  45 SE7       30.29F
RUSSELLVILLE   CLOUDY    40  25  55 E5        30.26F
CLINTON        CLOUDY    39  25  56 SE6       30.28F
$$

ARZ036-110400-
EAST ARKANSAS

CITY           SKY/WX    TMP DP  RH WIND       PRES   REMARKS
WEST MEMPHIS   CLOUDY    36  20  52 S9        30.35S
$$

ARZ050-053-066-070-073-110400-
SOUTHWEST ARKANSAS

CITY           SKY/WX    TMP DP  RH WIND       PRES   REMARKS
ARKADELPHIA    CLOUDY    42  32  67 SE3       30.31F
CAMDEN         MIX PCPN  43  25  49 SE5       30.32F
TEXARKANA      CLOUDY    46  28  49 SE12      30.26F
EL DORADO      CLOUDY    43  27  53 SE7       30.31F
DE QUEEN       CLOUDY    44  30  57 E6        30.24F
$$

ARZ056-057-069-110400-
SOUTHEAST ARKANSAS

CITY           SKY/WX    TMP DP  RH WIND       PRES   REMARKS
PINE BLUFF     CLOUDY    40  31  70 SE7       30.33F
STUTTGART      CLOUDY    39  25  56 SE9       30.33F
MONTICELLO     CLOUDY    38  30  73 E3        30.34F

$$






USA.gov is the U.S. government's official web portal to all federal, state and local government web resources and services.